Weather History for KNFG - November, 2012

Change the Weather History Date:

Monday, November 5, 2012

  Actual Average Record
Temperature  
Mean Temperature 70 °F -  
Max Temperature 93 °F 69 °F 93 °F (2012)
Min Temperature 46 °F 44 °F 37 °F (2003)
Cooling Degree Days 4    
Growing Degree Days 20 (Base 50)    
Moisture  
Dew Point 36 °F    
Average Humidity 42    
Maximum Humidity 74    
Minimum Humidity 8    
Precipitation  
Precipitation 0.00 in - - ()
Sea Level Pressure  
Sea Level Pressure 30.02 in    
Wind  
Wind Speed 2 mph (SSW)    
Max Wind Speed 10 mph    
Max Gust Speed -    
Visibility 10 miles    
Events      
Averages and records for this station are not official NWS values.
T = Trace of Precipitation, MM = Missing Value Source: NWS Daily Summary

Daily Weather History Graph

Daily Weather History Graph

Search for Another Location

Airport or City:

Trip Planner

Search our weather history database for the weather conditions in past years. The results will help you decide how hot, cold, wet, or windy it might be!

Date:

Astronomy

Nov. 05, 2012 Rise Set
Actual Time 6:11 AM PST 4:53 PM PST
Civil Twilight 5:46 AM PST 5:19 PM PST
Nautical Twilight 5:16 AM PST 5:49 PM PST
Astronomical Twilight 4:47 AM PST 6:18 PM PST
Moon 10:35 PM PST (11/5) 11:33 AM PST (11/5)
Length of Visible Light 11h 33m
Length of Day
10h 41m
Waning Gibbous, 62% of the Moon is Illuminated
Nov 5
Waning Gibbous
Nov 6
Last Quarter
Nov 13
New
Nov 20
First Quarter
Nov 28
Full

Hourly Weather History & Observations

Time (PST) Temp. Dew Point Humidity Pressure Visibility Wind Dir Wind Speed Gust Speed Precip Events Conditions
12:54 AM 48.0 °F 32.0 °F 54% 30.04 in 10.0 mi Calm Calm - N/A   Clear
1:54 AM 48.0 °F 30.9 °F 52% 30.04 in 10.0 mi Calm Calm - N/A   Clear
2:54 AM 46.0 °F 32.0 °F 58% 30.03 in 10.0 mi Calm Calm - N/A   Clear
3:54 AM 50.0 °F 33.1 °F 52% 30.03 in 10.0 mi SW 4.6 mph - N/A   Clear
4:54 AM 48.9 °F 32.0 °F 52% 30.03 in 10.0 mi Calm Calm - N/A   Clear
5:54 AM 46.9 °F 30.9 °F 54% 30.04 in 10.0 mi Calm Calm - N/A   Clear
6:54 AM 52.0 °F 32.0 °F 47% 30.06 in 10.0 mi Calm Calm - N/A   Clear
7:54 AM 66.0 °F 33.1 °F 29% 30.07 in 10.0 mi Calm Calm - N/A   Clear
8:54 AM 75.9 °F 30.9 °F 19% 30.06 in 10.0 mi South 3.5 mph - N/A   Clear
9:54 AM 89.1 °F 28.9 °F 12% 30.05 in 10.0 mi Calm Calm - N/A   Clear
10:54 AM 93.0 °F 23.0 °F 8% 30.03 in 10.0 mi Calm Calm - N/A   Clear
11:54 AM 93.0 °F 25.0 °F 9% 30.00 in 10.0 mi Variable 6.9 mph - N/A   Clear
12:54 PM 91.9 °F 33.1 °F 12% 29.97 in 10.0 mi SW 10.4 mph - N/A   Clear
1:54 PM 93.0 °F 23.0 °F 8% 29.96 in 10.0 mi SW 5.8 mph - N/A   Clear
2:54 PM 87.1 °F 28.0 °F 12% 29.97 in 10.0 mi SSW 6.9 mph - N/A   Clear
3:54 PM 84.0 °F 33.1 °F 16% 29.97 in 10.0 mi South 9.2 mph - N/A   Clear
4:54 PM 72.0 °F 53.1 °F 51% 29.99 in 10.0 mi WSW 5.8 mph - N/A   Clear
5:54 PM 68.0 °F 52.0 °F 56% 30.01 in 10.0 mi Calm Calm - N/A   Clear
6:54 PM 63.0 °F 50.0 °F 63% 30.02 in 10.0 mi NE 3.5 mph - N/A   Clear
7:54 PM 59.0 °F 48.0 °F 67% 30.03 in 10.0 mi Calm Calm - N/A   Clear
8:54 PM 57.9 °F 46.0 °F 65% 30.04 in 10.0 mi Calm Calm - N/A   Clear
9:54 PM 50.0 °F 42.1 °F 74% 30.05 in 10.0 mi Calm Calm - N/A   Clear
10:54 PM 52.0 °F 42.1 °F 69% 30.05 in 10.0 mi NE 3.5 mph - N/A   Clear
11:54 PM 48.9 °F 39.9 °F 71% 30.04 in 10.0 mi Calm Calm - N/A   Clear